K5JLG-10 Weather Reports


time (UTC)temp
C
wind
direction
speed
KPH
gust
KPH
rain 1hr
cm
rain 24hr
cm
rain mn
cm
humidity
%
barometer
mb
20260906225916 37 68 4.8 9.7 0.00 0.00 0.00 44 1010.4
20260906224917 38 0.0 1.6 0.00 0.00 0.00 44 1010.6
20260906223917 37 45 6.4 11.3 0.00 0.00 0.00 44 1010.5
20260906222938 38 203 3.2 9.7 0.00 0.00 0.00 45 1010.6
20260906221916 38 68 1.6 3.2 0.00 0.00 0.00 43 1010.6
20260906220937 38 135 1.6 4.8 0.00 0.00 0.00 43 1010.7
20260906215917 38 158 3.2 8.0 0.00 0.00 0.00 42 1010.7
20260906214937 38 90 4.8 9.7 0.00 0.00 0.00 44 1010.8
20260906213917 38 135 4.8 6.4 0.00 0.00 0.00 45 1010.9
20260906212917 38 158 6.4 14.5 0.00 0.00 0.00 43 1011.1
20260906211937 37 68 8.0 14.5 0.00 0.00 0.00 44 1011.3
20260906210916 38 90 4.8 11.3 0.00 0.00 0.00 45 1011.3
20260906205917 38 180 1.6 4.8 0.00 0.00 0.00 46 1011.4
20260906204916 38 68 4.8 11.3 0.00 0.00 0.00 44 1011.6
20260906203916 38 180 4.8 6.4 0.00 0.00 0.00 46 1011.8
20260906202916 37 158 4.8 8.0 0.00 0.00 0.00 47 1011.9
20260906201917 37 135 8.0 14.5 0.00 0.00 0.00 46 1012.0
20260906200917 37 158 4.8 9.7 0.00 0.00 0.00 48 1012.1
20260906195956 37 158 4.8 8.0 0.00 0.00 0.00 49 1012.2
20260906194916 36 68 11.3 19.3 0.00 0.00 0.00 48 1012.2
20260906193916 36 68 4.8 9.7 0.00 0.00 0.00 49 1012.4
20260906192917 37 45 4.8 8.0 0.00 0.00 0.00 48 1012.5
20260906191916 37 158 3.2 6.4 0.00 0.00 0.00 49 1012.6
20260906190916 37 0.0 3.2 0.00 0.00 0.00 50 1012.7
20260906185916 37 180 4.8 8.0 0.00 0.00 0.00 49 1012.9
20260906184936 36 135 4.8 9.7 0.00 0.00 0.00 50 1012.9
20260906183916 36 135 6.4 11.3 0.00 0.00 0.00 50 1013.1
20260906182916 36 158 6.4 9.7 0.00 0.00 0.00 51 1013.1
20260906181916 36 135 8.0 12.9 0.00 0.00 0.00 52 1013.3
20260906180916 36 158 11.3 17.7 0.00 0.00 0.00 52 1013.4
20260906175916 35 180 11.3 17.7 0.00 0.00 0.00 53 1013.4
20260906174915 35 180 6.4 12.9 0.00 0.00 0.00 54 1013.7
20260906173916 35 158 6.4 9.7 0.00 0.00 0.00 54 1013.8
20260906172916 35 203 3.2 4.8 0.00 0.00 0.00 57 1014.1
20260906171916 35 135 4.8 6.4 0.00 0.00 0.00 57 1014.3
20260906170916 34 180 6.4 8.0 0.00 0.00 0.00 57 1014.2
20260906165916 34 90 1.6 4.8 0.00 0.00 0.00 59 1014.3
20260906164916 34 158 6.4 12.9 0.00 0.00 0.00 60 1014.5
20260906163915 34 180 6.4 11.3 0.00 0.00 0.00 61 1014.5
20260906162916 33 68 4.8 8.0 0.00 0.00 0.00 62 1014.4
20260906161916 33 180 1.6 4.8 0.00 0.00 0.00 61 1014.6
20260906160916 33 68 4.8 8.0 0.00 0.00 0.00 62 1014.5
20260906155916 33 180 3.2 4.8 0.00 0.00 0.00 64 1014.6
20260906154916 33 135 4.8 8.0 0.00 0.00 0.00 65 1014.6
20260906153917 32 68 1.6 3.2 0.00 0.00 0.00 68 1014.5
20260906152916 32 158 1.6 1.6 0.00 0.00 0.00 68 1014.2
20260906151915 32 0.0 1.6 0.00 0.00 0.00 69 1014.2
20260906150916 32 68 3.2 6.4 0.00 0.00 0.00 69 1014.1
20260906145915 31 68 3.2 4.8 0.00 0.00 0.00 71 1014.1
20260906144915 31 0.0 3.2 0.00 0.00 0.00 70 1014.1
20260906143936 31 0.0 4.8 0.00 0.00 0.00 73 1014.0
20260906142916 31 68 1.6 4.8 0.00 0.00 0.00 73 1014.0
20260906141915 31 68 1.6 3.2 0.00 0.00 0.00 73 1014.1
20260906140915 30 0.0 0.0 0.00 0.00 0.00 74 1014.1
20260906135936 30 0.0 0.0 0.00 0.00 0.00 75 1014.2
20260906134915 30 0.0 1.6 0.00 0.00 0.00 76 1014.1
20260906133915 30 0.0 0.0 0.00 0.00 0.00 77 1014.2
20260906132915 29 180 1.6 3.2 0.00 0.00 0.00 78 1014.0
20260906131915 28 0.0 0.0 0.00 0.00 0.00 81 1014.0
20260906130915 27 158 1.6 3.2 0.00 0.00 0.00 82 1014.0
20260906125937 27 0.0 1.6 0.00 0.00 0.00 83 1013.8
20260906124917 27 0.0 0.0 0.00 0.00 0.00 84 1013.9
20260906123918 26 0.0 0.0 0.00 0.00 0.00 85 1013.8
20260906122935 26 0.0 0.0 0.00 0.00 0.00 85 1013.7
20260906121918 26 0.0 0.0 0.00 0.00 0.00 85 1013.6
20260906120917 26 0.0 0.0 0.00 0.00 0.00 84 1013.5
20260906115917 26 0.0 0.0 0.00 0.00 0.00 84 1013.5
20260906114917 26 0.0 0.0 0.00 0.00 0.00 84 1013.4
20260906113917 27 0.0 0.0 0.00 0.00 0.00 83 1013.3
20260906112917 27 158 1.6 3.2 0.00 0.00 0.00 82 1013.2
20260906111917 27 0.0 1.6 0.00 0.00 0.00 82 1013.1
20260906110917 27 158 1.6 3.2 0.00 0.00 0.00 83 1013.2
20260906105917 27 0.0 0.0 0.00 0.00 0.00 82 1013.1
20260906104917 27 0.0 0.0 0.00 0.00 0.00 82 1013.0
20260906103937 27 0.0 0.0 0.00 0.00 0.00 83 1012.9
20260906102917 27 0.0 0.0 0.00 0.00 0.00 83 1012.9
20260906101917 27 0.0 0.0 0.00 0.00 0.00 81 1012.9
20260906100918 27 0.0 0.0 0.00 0.00 0.00 80 1012.8
20260906095917 27 0.0 0.0 0.00 0.00 0.00 80 1012.7
20260906094917 27 0.0 0.0 0.00 0.00 0.00 80 1012.6
20260906093957 28 0.0 0.0 0.00 0.00 0.00 79 1012.4
20260906092917 28 0.0 0.0 0.00 0.00 0.00 79 1012.4
20260906091917 28 0.0 0.0 0.00 0.00 0.00 79 1012.4
20260906090917 28 158 1.6 3.2 0.00 0.00 0.00 79 1012.2
20260906085917 28 158 1.6 4.8 0.00 0.00 0.00 79 1012.2
20260906084917 28 180 1.6 4.8 0.00 0.00 0.00 78 1012.2
20260906083937 28 180 4.8 8.0 0.00 0.00 0.00 78 1012.4
20260906082917 28 180 3.2 6.4 0.00 0.00 0.00 78 1012.4
20260906081917 28 135 1.6 3.2 0.00 0.00 0.00 77 1012.1
20260906080917 28 180 3.2 4.8 0.00 0.00 0.00 77 1012.1
20260906075917 28 158 3.2 4.8 0.00 0.00 0.00 77 1012.3
20260906074917 28 158 1.6 1.6 0.00 0.00 0.00 77 1012.4
20260906073918 29 0.0 0.0 0.00 0.00 0.00 76 1012.3
20260906072917 29 0.0 0.0 0.00 0.00 0.00 76 1012.4
20260906071937 29 158 1.6 3.2 0.00 0.00 0.00 75 1012.5
20260906070916 29 158 4.8 6.4 0.00 0.00 0.00 75 1012.6
20260906065917 29 180 1.6 3.2 0.00 0.00 0.00 74 1012.6
20260906064916 30 158 4.8 6.4 0.00 0.00 0.00 73 1012.6
20260906063916 30 0.0 1.6 0.00 0.00 0.00 72 1012.5
20260906062916 30 0.0 3.2 0.00 0.00 0.00 71 1012.5
20260906061917 30 158 3.2 6.4 0.00 0.00 0.00 71 1012.6
20260906060917 30 0.0 1.6 0.00 0.00 0.00 70 1012.6
20260906055937 30 158 1.6 4.8 0.00 0.00 0.00 70 1012.6
20260906054916 30 180 3.2 4.8 0.00 0.00 0.00 70 1012.6
20260906053916 30 158 1.6 4.8 0.00 0.00 0.00 70 1012.4
20260906052916 30 0.0 3.2 0.00 0.00 0.00 70 1012.5
20260906051916 30 0.0 3.2 0.00 0.00 0.00 70 1012.6
20260906050937 30 0.0 0.0 0.00 0.00 0.00 69 1012.6
20260906045917 30 135 3.2 4.8 0.00 0.00 0.00 69 1012.6
20260906044917 30 158 3.2 4.8 0.00 0.00 0.00 69 1012.7
20260906043917 31 158 3.2 4.8 0.00 0.00 0.00 68 1012.5
20260906042936 31 135 3.2 4.8 0.00 0.00 0.00 68 1012.5
20260906041917 31 158 3.2 6.4 0.00 0.00 0.00 67 1012.4
20260906040916 31 158 3.2 6.4 0.00 0.00 0.00 67 1012.4
20260906035917 31 158 3.2 4.8 0.00 0.00 0.00 66 1012.3
20260906034917 31 135 3.2 6.4 0.00 0.00 0.00 65 1012.5
20260906033917 31 158 4.8 9.7 0.00 0.00 0.00 65 1012.4
20260906032917 31 158 3.2 4.8 0.00 0.00 0.00 64 1012.4
20260906031916 31 158 4.8 9.7 0.00 0.00 0.00 64 1012.4
20260906030916 31 180 6.4 9.7 0.00 0.00 0.00 63 1012.6
20260906025936 32 158 4.8 8.0 0.00 0.00 0.00 62 1012.5
20260906024917 32 180 8.0 12.9 0.00 0.00 0.00 62 1012.4
20260906023916 32 180 6.4 12.9 0.00 0.00 0.00 62 1012.3
20260906022916 32 158 6.4 11.3 0.00 0.00 0.00 61 1012.1
20260906021917 32 158 3.2 3.2 0.00 0.00 0.00 61 1011.9
20260906020936 32 180 4.8 8.0 0.00 0.00 0.00 61 1011.7
20260906015917 32 158 3.2 4.8 0.00 0.00 0.00 61 1011.7
20260906014916 32 158 11.3 17.7 0.00 0.00 0.00 60 1011.5
20260906013916 33 158 11.3 14.5 0.00 0.00 0.00 59 1011.3
20260906012916 33 180 9.7 16.1 0.00 0.00 0.00 57 1011.1
20260906011916 34 158 9.7 17.7 0.00 0.00 0.00 55 1010.8
20260906010916 35 158 3.2 9.7 0.00 0.00 0.00 49 1010.6
20260906005916 35 68 3.2 6.4 0.00 0.00 0.00 49 1010.4
20260906004917 36 0.0 1.6 0.00 0.00 0.00 48 1010.4
20260906003916 36 135 1.6 3.2 0.00 0.00 0.00 47 1010.3
20260906002956 36 158 4.8 9.7 0.00 0.00 0.00 46 1010.4
20260906001916 37 158 3.2 6.4 0.00 0.00 0.00 45 1010.4
20260906000916 37 135 1.6 3.2 0.00 0.00 0.00 45 1010.4
20260905235916 37 158 8.0 16.1 0.00 0.00 0.00 44 1010.3
20260905234916 37 180 1.6 3.2 0.00 0.00 0.00 44 1010.2
20260905233916 37 0.0 1.6 0.00 0.00 0.00 43 1010.1
20260905232916 37 158 4.8 9.7 0.00 0.00 0.00 44 1010.2
20260905231916 37 0.0 0.0 0.00 0.00 0.00 44 1010.2
20260905230936 37 68 3.2 6.4 0.00 0.00 0.00 43 1010.2